Location: Most
(50.5133°N, 13.6207°E)
Time: 01:44:45
(UTC+02:00)

ISS - Visible Passes

Search period start: 23 October 2021 00:00
Search period end: 01 November 2021 23:00
Orbit: 417 x 423 km, 51.6° (Epoch: 22 October)

Date Brightness Start Highest point End Pass type
(mag) Time Alt. Az. Time Alt. Az. Time Alt. Az.
23 Oct -1.1 06:16:04 10° S 06:18:26 18° SE 06:20:48 10° E visible
24 Oct -0.9 05:29:58 10° SSE 05:31:24 12° SE 05:32:51 10° ESE visible
24 Oct -2.9 07:04:21 10° SW 07:07:38 50° SSE 07:10:55 10° ENE visible
25 Oct -2.4 06:17:49 13° SW 06:20:28 36° SSE 06:23:36 10° E visible
26 Oct -2.0 05:32:52 25° SSE 05:33:20 26° SE 05:36:13 10° E visible
26 Oct -3.7 07:06:30 10° WSW 07:09:53 86° SSE 07:13:16 10° ENE visible
27 Oct -0.7 04:47:48 14° ESE 04:47:48 14° ESE 04:48:38 10° E visible
27 Oct -3.6 06:20:47 24° WSW 06:22:38 69° SSE 06:26:00 10° ENE visible
28 Oct -3.1 05:35:37 50° SE 05:35:37 50° SE 05:38:41 10° ENE visible
28 Oct -3.7 07:08:49 10° W 07:12:11 73° N 07:15:34 10° E visible
29 Oct -0.8 04:50:22 17° E 04:50:22 17° E 04:51:20 10° E visible
29 Oct -3.8 06:23:21 30° W 06:24:52 81° N 06:28:16 10° ENE visible
30 Oct -3.3 05:38:04 62° E 05:38:04 62° E 05:40:57 10° ENE visible
30 Oct -3.7 07:11:07 10° W 07:14:29 72° N 07:17:52 10° E visible
31 Oct -0.8 03:52:43 17° E 03:52:43 17° E 03:53:38 10° ENE visible
31 Oct -3.7 05:25:42 31° WNW 05:27:09 70° N 05:30:31 10° E visible
01 Nov -3.2 04:40:19 57° NE 04:40:19 57° NE 04:43:10 10° E visible
01 Nov -3.7 06:13:20 10° WNW 06:16:43 87° SSW 06:20:06 10° ESE visible
